Regional Weather Roundup
Issued by NWS

Home | Current Version | Previous Version | Text Only | Print | Product List | Glossary Off
Versions: 1 2 3 4 5 6 7 8 9 10 11 12 13 14 15 16 17 18 19 20 21 22 23 24 25 26 27 28 29 30 31 32 33 34 35 36 37 38 39 40 41 42 43 44 45 46 47 48 49 50

000
ASUS45 KBOU 081407
RWRCO

WEATHER ROUNDUP FOR COLORADO
NATIONAL WEATHER SERVICE DENVER/BOULDER CO
700 AM MST MON FEB 08 2016

NOTE: "FAIR" INDICATES FEW OR NO CLOUDS BELOW 12000 FEET WITH NO
SIGNIFICANT WEATHER AND/OR OBSTRUCTIONS TO VISIBILITY.

COZ001>005-013-030-031-081500-
...NORTHWEST COLORADO...

CITY           SKY/WX    TMP DP  RH WIND       PRES   REMARKS
CRAIG          CLOUDY    -4  -9  79 CALM      30.58R
HAYDEN         CLOUDY    12   7  79 E9        30.55R WCI   0
MEEKER         CLOUDY     2  -2  83 NE5       30.57R WCI  -8
MOUNT WERNER   NOT AVBL
STEAMBOAT SPGS CLOUDY    10   8  92 CALM      30.56R
WALDEN         CLOUDY    19  12  73 SE5       30.48S WCI  13
$$

COZ006>008-011-081500-
...WEST CENTRAL VALLEYS...

CITY           SKY/WX    TMP DP  RH WIND       PRES   REMARKS
GRAND JUNCTION CLOUDY    16  13  88 E5        30.59R WCI   9
MONTROSE       CLOUDY    12   6  77 SE6       30.60R WCI   3
EAGLE          CLEAR      7   3  85 CALM      30.63R
RIFLE          CLOUDY    11   5  77 SE6       30.61R WCI   1
DELTA          CLOUDY    19  15  86 CALM      30.61R
NUCLA          CLOUDY    18  12  79 E3        30.58S
$$

COZ017>023-064>068-081500-
...SOUTHWEST COLORADO...

CITY           SKY/WX    TMP DP  RH WIND       PRES   REMARKS
DURANGO        CLOUDY     4   2  91 E7        30.47R WCI  -8
CORTEZ         CLOUDY    14  10  84 E6        30.47R WCI   5
PAGOSA SPRINGS CLOUDY   N/A N/A N/A CALM      30.46S
TELLURIDE      NOT AVBL
WOLF CREEK PAS CLOUDY    23   5  46 N3        30.52S
$$

COZ009-010-012-014-032>034-037-058>063-081500-
...CENTRAL COLORADO...

CITY           SKY/WX    TMP DP  RH WIND       PRES   REMARKS
ASPEN          CLOUDY    12   6  77 VRB5      30.56R WCI   4
BUENA VISTA    CLOUDY    28  13  53 N22G28    30.42S WCI  14
COPPER MTN     CLOUDY    18  10  73 W8G20     30.50S WCI   7
BERTHOUD PASS  CLOUDY    10   0  61 NW40      30.40S WCI -14
COTTONWOOD PAS CLOUDY    30  10  43 SW7       30.42R WCI  23
GUNNISON       CLOUDY   -11 -26  49 CALM      30.58S
KREMMLING      CLOUDY    12   7  79 E7        30.54R WCI   2
LEADVILLE      CLOUDY    10   5  80 N10       30.49R WCI  -4
MONARCH PASS   CLOUDY    12   7  79 MISG      30.55S
SALIDA         NOT AVBL
SUNLIGHT       CLOUDY    19  14  79 NW5         N/A  WCI  13
WILKERSON PASS CLOUDY    25  12  58 NW28G43   30.37R WCI   8
$$

COZ069>075-081500-
...SAN LUIS VALLEY/SANGRE DE CRISTO MOUNTAINS...

CITY           SKY/WX    TMP DP  RH WIND       PRES   REMARKS
ALAMOSA        CLOUDY     9   4  80 S5        30.45R WCI   1
LA VETA PASS   CLOUDY    19   9  63 MISG      30.37F
SAGUACHE       CLOUDY    27  12  54 NW16      30.44F WCI  14
$$

COZ035-036-038>040-081500-
...NORTHERN COLORADO FRONT RANGE...

CITY           SKY/WX    TMP DP  RH WIND       PRES   REMARKS
DENVER INTL AP CLOUDY    16   9  74 SW6       30.34R WCI   7
DMNS CITY PARK   N/A     21  15  79 MISG      30.37R
AURORA         PTCLDY    24  14  66 S7        30.35R WCI  15
FRONT RANGE AP PTCLDY    16   9  73 S9        30.34  WCI   4
ERIE MUNI ARPT CLOUDY    16  14  92 CALM      30.37R
BOULDER MUN AP CLOUDY    23  19  86 CALM      30.35S
CENTENNIAL     CLOUDY    20  13  74 SE7       30.33R WCI  11
BROOMFIELD     PTCLDY    21  18  86 CALM      30.35R
FORT COLLINS   CLOUDY    16  10  79 W3        30.37R
LONGMONT       CLOUDY    15  12  85 CALM      30.39R
$$

COZ041-046-047-076>085-087-088-081500-
...PIKES PEAK/PALMER DIVIDE AND SOUTHERN FOOTHILLS...

CITY           SKY/WX    TMP DP  RH WIND       PRES   REMARKS
COLO. SPRINGS  CLOUDY    21  18  88 NW7       30.36R WCI  12
A. F. ACADEMY  CLOUDY    17  16  94 N6        30.33R FOG     WCI   9
SCHRIEVER AFB  NOT AVBL
ELLICOTT       NOT AVBL
FALCON         FOG       17  15  95 W6        30.34R VSB<1/4 WCI   8
FORT CARSON    CLOUDY    17  14  91 NW8       30.34S WCI   6
LIMON          CLOUDY    12   7  80 W13       30.37R WCI  -3
MONUMENT HILL  CLOUDY    27  16  63 N6        30.34R WCI  20
TRINIDAD       CLOUDY    21  17  84 SW10      30.34F WCI  10
$$

COZ042>045-048>051-090-091-081500-
...NORTHEAST COLORADO...

CITY           SKY/WX    TMP DP  RH WIND       PRES   REMARKS
GREELEY ARPT   CLOUDY    12   9  85 CALM      30.39R
AKRON          CLOUDY    16  12  84 W16       30.34R WCI   1
BURLINGTON     CLOUDY    21  12  68 NW16      30.35R WCI   7
WRAY           CLEAR     24  12  61 NW15      30.35S WCI  11
STERLING       CLOUDY    28  16  59 CALM      30.39R
HOLYOKE        CLEAR     30  12  47 NW20      30.34R WCI  18
FORT MORGAN    CLOUDY    20  14  78 NW14      30.39S WCI   6
$$

COZ086-089-092>099-081500-
...SOUTHEAST COLORADO...

CITY           SKY/WX    TMP DP  RH WIND       PRES   REMARKS
PUEBLO         CLOUDY    23  18  81 NE5       30.39R WCI  17
LA JUNTA       CLOUDY    23  18  81 W8        30.41R WCI  14
LAMAR          CLOUDY    22  18  85 W13       30.41R WCI  10
SPRINGFIELD      N/A     22  15  75 W9        30.41R WCI  12
$$



USA.gov is the U.S. government's official web portal to all federal, state and local government web resources and services.